Regional Weather Roundup
Issued by NWS

Home | Current Version | Previous Version | Text Only | Print | Product List | Glossary On
Versions: 1 2 3 4 5 6 7 8 9 10 11 12 13 14 15 16 17 18 19 20 21 22 23 24 25 26 27 28 29 30 31 32 33 34 35 36 37 38 39 40 41 42 43 44 45 46 47 48 49 50
000
ASUS44 KOUN 251900
RWROK

WEATHER ROUNDUP FOR OKLAHOMA
NATIONAL WEATHER SERVICE NORMAN OK
200 PM CDT WED MAY 25 2016

NOTE: "FAIR" INDICATES FEW OR NO CLOUDS BELOW 12,000 FEET WITH NO
      SIGNIFICANT WEATHER AND/OR OBSTRUCTIONS TO VISIBILITY.

OKZ001>007-009>012-014-015-017-252000-
NORTHWEST OKLAHOMA AND THE PANHANDLE

CITY           SKY/WX    TMP DP  RH WIND       PRES   REMARKS
GAGE           SUNNY     90  43  19 SW8       29.87F
GUYMON         SUNNY     89  34  14 SW15G35   29.89F
ENID/WOODRING  MOSUNNY   93  70  46 S22G28    29.81F HX  99
$$

OKZ016-021>023-033>039-044-045-252000-
SOUTHWEST OKLAHOMA

CITY           SKY/WX    TMP DP  RH WIND       PRES   REMARKS
LAWTON/REGL    MOSUNNY   88  72  58 S15G23    29.88F HX  94
LAWTON/FT SILL MOSUNNY   87  75  68 S18G25    29.87F HX  96
FREDERICK      MOSUNNY   91  74  57 S18G25    29.85F HX 100
CLINTON        SUNNY     90  68  48 S20G25    29.89F HX  94
HOBART         SUNNY     90  71  53 S21       29.87F HX  96
$$

OKZ018>020-024>031-252000-
CENTRAL OKLAHOMA

CITY           SKY/WX    TMP DP  RH WIND       PRES   REMARKS
OKLAHOMA CITY  PTSUNNY   86  72  62 S17G29    29.88F HX  92
OKC/WILEY POST MOSUNNY   88  71  57 S23G30    29.87F HX  94
STILLWATER     MOSUNNY   85  73  67 S21G26    29.86F HX  91
GUTHRIE        MOSUNNY   88  71  57 S22G30    29.86F HX  94
$$

OKZ008-013-054>072-252000-
NORTHEAST OKLAHOMA

CITY           SKY/WX    TMP DP  RH WIND       PRES   REMARKS
TULSA          PTSUNNY   83  73  72 S21G29    29.88F
TULSA/JONES    CLOUDY    84  72  67 S16G24    29.89F
PONCA CITY     MOSUNNY   87  72  60 S13G20    29.83F HX  93
BARTLESVILLE   SUNNY     82  71  69 S13G23    29.88F
MUSKOGEE       SUNNY     78  69  73 SE16G28   29.95F
$$

OKZ032-040>043-046>053-073>077-252000-
SOUTH CENTRAL/SOUTHEAST OKLAHOMA

CITY           SKY/WX    TMP DP  RH WIND       PRES   REMARKS
MCALESTER      PTSUNNY   84  74  71 S14G23    29.97F HX  91
$$




USA.gov is the U.S. government's official web portal to all federal, state and local government web resources and services.